Regional Weather Roundup
Issued by NWS

Home | Current Version | Previous Version | Graphics & Text | Print | Product List | Glossary On
Versions: 1 2 3 4 5 6 7 8 9 10 11 12 13 14 15 16 17 18 19 20 21 22 23 24 25 26 27 28 29 30 31 32 33 34 35 36 37 38 39 40 41 42 43 44 45 46 47 48 49 50
841
ASUS44 KMEG 162200
RWRTN
TENNESSEE HOURLY STATE WEATHER ROUNDUP
NATIONAL WEATHER SERVICE MEMPHIS TN
400 PM CST MON JAN 16 2017

TNZ002-004-019-021-049-052-054-088>092-162300-
WEST TENNESSEE

CITY           SKY/WX    TMP DP  RH WIND       PRES   REMARKS
MEMPHIS INTL   LGT RAIN  67  62  84 S14       30.02S
NWS MEMPHIS      N/A     67 N/A N/A MISG        N/A
JACKSON        CLOUDY    68  59  73 S9        30.05R
DYERSBURG      CLOUDY    64  57  77 S9        30.01F
UNION CITY     PTSUNNY   64  64 100 S5        30.01F
PARIS          MOSUNNY   63  54  72 CALM      30.05F
$$

TNZ008-025-027-028-033-062-065-066-162300-
NORTH MIDDLE TENNESSEE

CITY           SKY/WX    TMP DP  RH WIND       PRES   REMARKS
NASHVILLE      CLOUDY    69  50  50 S12       30.12S
CLARKSVILLE    CLOUDY    67  50  54 S10       30.07S
SMYRNA         CLOUDY    69  51  52 S8        30.13S
CROSSVILLE     CLOUDY    60  52  74 VRB5      30.20S
$$

TNZ061-075-076-078-094-096-097-162300-
SOUTH MIDDLE TENNESSEE

CITY           SKY/WX    TMP DP  RH WIND       PRES   REMARKS
TULLAHOMA      MOCLDY    66  46  48 S7        30.16F
WINCHESTER     MOCLDY    68  50  52 S12       30.17R
MCMINNVILLE    MOCLDY    70  50  49 S6        30.16S
COLUMBIA       CLEAR     68  55  64 S6        30.10S
SHELBYVILLE    CLOUDY    70  54  56 S8        30.15S
$$

TNZ017-018-042-046-047-162300-
NORTHEAST TENNESSEE

CITY           SKY/WX    TMP DP  RH WIND       PRES   REMARKS
TRI CITIES     MOCLDY    65  48  54 W3        30.22F
$$

TNZ012-013-036-069-073-074-162300-
CENTRAL EAST TENNESSEE

CITY           SKY/WX    TMP DP  RH WIND       PRES   REMARKS
KNOXVILLE      CLOUDY    62  53  72 CALM      30.20S
OAK RIDGE      CLOUDY    62  53  72 CALM      30.21F
GATLINBURG     MOCLDY    61  54  77 CALM      30.20F
$$

TNZ083-085-099-162300-
SOUTHEAST TENNESSEE

CITY           SKY/WX    TMP DP  RH WIND       PRES   REMARKS
CHATTANOOGA    MOCLDY    67  53  61 SE8       30.19R
$$

SKY/WX REPORTED AS FAIR MEANS FEW OR NO CLOUDS BELOW
12 THOUSAND FEET.





USA.gov is the U.S. government's official web portal to all federal, state and local government web resources and services.